Weather History for Phoenix Deer Valley, AZ

Change the Weather History Date:

Monday, January 21, 2013

  Actual Average Record
Temperature  
Mean Temperature 65 °F -  
Max Temperature 78 °F 64 °F 79 °F (2009)
Min Temperature 52 °F 44 °F 37 °F (2002)
Growing Degree Days 15 (Base 50)    
Moisture  
Dew Point 15 °F    
Average Humidity 16    
Maximum Humidity 27    
Minimum Humidity 11    
Precipitation  
Precipitation 0.00 in - - ()
Sea Level Pressure  
Sea Level Pressure 30.01 in    
Wind  
Wind Speed 6 mph (NNE)    
Max Wind Speed 10 mph    
Max Gust Speed -    
Visibility 10 miles    
Events      
Averages and records for this station are not official NWS values.
T = Trace of Precipitation, MM = Missing Value Source: NWS Daily Summary

Daily Weather History Graph

Daily Weather History Graph

Search for Another Location

Airport:

Trip Planner

Search our weather history database for the weather conditions in past years. The results will help you decide how hot, cold, wet, or windy it might be!

Date:

Astronomy

Jan. 21, 2013 Rise Set
Actual Time 7:30 AM MST 5:48 PM MST
Civil Twilight 7:04 AM MST 6:15 PM MST
Nautical Twilight 6:33 AM MST 6:46 PM MST
Astronomical Twilight 6:04 AM MST 7:15 PM MST
Moon 1:32 PM MST (1/21) 3:01 AM MST (1/21)
Length of Visible Light 11h 11m
Length of Day
10h 18m
Waxing Gibbous, 75% of the Moon is Illuminated
Jan 21
Waxing Gibbous
Jan 26
Full
Feb 3
Last Quarter
Feb 10
New
Feb 17
First Quarter

Hourly Weather History & Observations

Time (MST) Temp. Dew Point Humidity Pressure Visibility Wind Dir Wind Speed Gust Speed Precip Events Conditions
12:53 AM 55.9 °F 12.9 °F 18% 30.01 in 10.0 mi NE 6.9 mph - N/A   Clear
1:53 AM 55.0 °F 14.0 °F 20% 30.01 in 10.0 mi NNE 8.1 mph - N/A   Clear
2:53 AM 55.9 °F 12.0 °F 18% 30.00 in 10.0 mi NNE 8.1 mph - N/A   Clear
3:53 AM 54.0 °F 10.9 °F 18% 30.00 in 10.0 mi NNE 10.4 mph - N/A   Clear
4:53 AM 53.1 °F 10.0 °F 18% 30.00 in 10.0 mi NNE 10.4 mph - N/A   Clear
5:53 AM 55.0 °F 10.0 °F 17% 30.01 in 10.0 mi NNE 10.4 mph - N/A   Clear
6:53 AM 53.1 °F 10.0 °F 18% 30.03 in 10.0 mi NNE 8.1 mph - N/A   Clear
7:53 AM 52.0 °F 10.9 °F 19% 30.04 in 10.0 mi NNE 10.4 mph - N/A   Clear
8:53 AM 57.0 °F 10.9 °F 16% 30.06 in 10.0 mi NNE 8.1 mph - N/A   Clear
9:53 AM 63.0 °F 12.9 °F 14% 30.08 in 10.0 mi NNE 3.5 mph - N/A   Clear
10:53 AM 66.0 °F 10.9 °F 12% 30.08 in 10.0 mi Calm Calm - N/A   Clear
11:53 AM 70.0 °F 14.0 °F 12% 30.06 in 10.0 mi Calm Calm - N/A   Clear
12:53 PM 72.0 °F 15.1 °F 11% 30.02 in 10.0 mi Calm Calm - N/A   Clear
1:53 PM 73.9 °F 16.0 °F 11% 29.99 in 10.0 mi Calm Calm - N/A   Clear
2:53 PM 77.0 °F 18.0 °F 11% 29.98 in 10.0 mi Calm Calm - N/A   Clear
3:31 PM 78.8 °F 19.4 °F 11% 30.01 in 10.0 mi Variable 3.5 mph - N/A   Clear
3:53 PM 78.1 °F 21.0 °F 12% 29.96 in 10.0 mi Calm Calm - N/A   Clear
4:53 PM 78.1 °F 21.0 °F 12% 29.96 in 10.0 mi Calm Calm - N/A   Clear
5:53 PM 73.0 °F 19.9 °F 14% 29.97 in 10.0 mi SW 4.6 mph - N/A   Clear
6:53 PM 66.9 °F 21.0 °F 17% 29.99 in 10.0 mi Calm Calm - N/A   Clear
7:53 PM 64.0 °F 19.9 °F 18% 30.00 in 10.0 mi Calm Calm - N/A   Clear
8:53 PM 57.0 °F 23.0 °F 27% 30.01 in 10.0 mi Calm Calm - N/A   Clear
9:53 PM 62.1 °F 19.0 °F 19% 30.01 in 10.0 mi NE 4.6 mph - N/A   Clear
10:53 PM 61.0 °F 15.1 °F 17% 30.03 in 10.0 mi Calm Calm - N/A   Clear
11:53 PM 57.9 °F 14.0 °F 18% 30.04 in 10.0 mi NNE 6.9 mph - N/A   Clear